[[{"header":{"parameterUnit":"m.s-1","parameterCategory":1,"la1":30.2991,"la2":30.254,"lo1":-89.0895,"lo2":-89.0444,"dy":0.0017,"dx":0.0017,"nx":28,"ny":28,"refTime":"2025-05-19T03:00:00:Z","depth":0,"parameterNumber":2,"parameterNumberName":"U-component_of_WINDS"},"data":[0,0,0,0,0,0,0,0,0,0,0,0,0,0,0,0,0,0,0,0,0,0,0,0,0,0,0,0,0,0,0,0,0,0,0,0,0,0,0,0,0,0,0,0,0,0,0,0,0,0,0,0,0,0,0,0,0,0,-0.2223,-0.2222,0,-0.2122,-0.2121,-0.212,-0.2097,-0.2097,-0.2098,-0.2099,-0.1994,-0.199,-0.1987,0,0,0,0,0,0,0,0,0,0,0,0,0,-0.2397,-0.2394,-0.2223,-0.2222,-0.2221,-0.2122,-0.2121,-0.2119,-0.2097,-0.2098,-0.2098,-0.2099,-0.1995,-0.1991,-0.1986,0,0,0,0,0,0,0,0,0,0,0,0,0,-0.2311,-0.2393,-0.2224,-0.2198,-0.2194,-0.2122,-0.2121,-0.2119,-0.2096,-0.2098,-0.2099,-0.21,-0.1996,-0.1991,-0.1986,-0.1932,0,0,-0.197,-0.1968,0,0,0,0,0,0,0,0,-0.2316,-0.2305,-0.2203,-0.2199,-0.2195,-0.2123,-0.2143,-0.2056,-0.2096,-0.2134,-0.2099,-0.21,-0.2036,-0.2027,-0.2006,-0.1927,-0.1923,-0.197,-0.1966,-0.1964,-0.1963,0,0,0,0,0,0,0,-0.2322,-0.2309,-0.2183,-0.2201,-0.2197,-0.2191,-0.218,-0.2127,-0.208,-0.213,-0.2129,-0.2117,-0.2034,-0.2011,-0.2003,-0.1921,-0.197,-0.1965,-0.1962,-0.196,-0.1794,-0.1792,0,0,0,0,0,0,-0.2333,-0.2314,-0.2186,-0.218,-0.226,-0.2187,-0.2175,-0.2145,-0.208,-0.2071,-0.2116,-0.2116,-0.2019,-0.2009,-0.1999,-0.1932,-0.1964,-0.1959,-0.1956,-0.1795,-0.1793,-0.1792,0,0,0,0,0,0,-0.2337,-0.2322,-0.219,-0.2247,-0.223,-0.2183,-0.215,-0.2143,-0.212,-0.2069,-0.2061,-0.2101,-0.202,-0.2007,-0.1949,-0.1928,-0.1957,-0.1952,-0.1796,-0.1794,-0.1793,-0.1798,0,0,0,0,0,0,-0.2342,-0.2323,-0.2302,-0.2246,-0.2227,-0.2142,-0.2149,-0.214,-0.2111,-0.211,-0.2053,-0.2045,-0.202,-0.1957,-0.1944,-0.1922,-0.1948,-0.1798,-0.1796,-0.1793,-0.1799,-0.1796,-0.1794,0,0,0,0,0,-0.2348,-0.2307,-0.2301,-0.2286,-0.22,-0.2141,-0.213,-0.2102,-0.2109,-0.2088,-0.2056,-0.2047,-0.1933,-0.1951,-0.1937,-0.1912,-0.1799,-0.1796,-0.1794,-0.1801,-0.1797,-0.1794,0,0,0,0,0,0,-0.2361,-0.2299,-0.2292,-0.2232,-0.2192,-0.2137,-0.2109,-0.2099,-0.2055,-0.2056,-0.2023,-0.2011,-0.1955,-0.1928,-0.195,-0.1857,-0.1866,-0.186,-0.1877,-0.1873,-0.187,-0.1878,-0.1944,0,0,0,0,0,-0.2357,-0.2315,-0.2263,-0.2215,-0.2196,-0.2156,-0.213,-0.2112,-0.2069,-0.2051,-0.2015,-0.1973,-0.1928,-0.1899,-0.1855,-0.1796,-0.1783,-0.1772,-0.1769,-0.1767,-0.1762,-0.1729,-0.1723,-0.1783,-0.1783,-0.1783,0,0,-0.2348,-0.231,-0.2285,-0.2217,-0.2184,-0.2141,-0.2142,-0.2096,-0.2064,-0.2044,-0.1988,-0.196,-0.1911,-0.1853,-0.1825,-0.1828,-0.1743,-0.1763,-0.1762,-0.1758,-0.1725,-0.172,-0.1715,-0.1781,-0.1781,-0.1781,0,0,-0.231,-0.2277,-0.2233,-0.22,-0.215,-0.2124,-0.2114,-0.2061,-0.2042,-0.1985,-0.197,-0.1931,-0.1854,-0.182,-0.1792,-0.1743,-0.1733,-0.1729,-0.1715,-0.1683,-0.1678,-0.1674,-0.1656,-0.165,-0.1725,-0.1725,-0.1725,0,-0.2306,-0.224,-0.2212,-0.2167,-0.2138,-0.2119,-0.2075,-0.2044,-0.1982,-0.1963,-0.1967,-0.1871,-0.1837,-0.177,-0.1758,-0.1737,-0.1724,-0.1735,-0.1681,-0.1676,-0.1672,-0.1655,-0.1648,-0.1724,-0.1724,-0.1724,-0.1724,0,-0.2237,-0.2192,-0.2163,-0.2104,-0.2072,-0.2028,-0.1993,-0.1963,-0.1949,-0.1922,-0.1865,-0.1824,-0.1771,-0.1754,-0.1739,-0.1685,-0.1689,-0.1688,-0.1696,-0.1667,-0.165,-0.1643,-0.1724,-0.1724,-0.1724,-0.1724,0,0,-0.2203,-0.2131,-0.212,-0.2094,-0.2038,-0.2002,-0.1958,-0.1907,-0.1882,-0.184,-0.1802,-0.1738,-0.1737,-0.1706,-0.1687,-0.1659,-0.1622,-0.1661,-0.1659,-0.1655,-0.1561,-0.1562,-0.1555,-0.1616,-0.1614,-0.1613,-0.1565,0,-0.2159,-0.2078,-0.2052,-0.1985,-0.1943,-0.1925,-0.1886,-0.1847,-0.1822,-0.1783,-0.1754,-0.1709,-0.1711,-0.1693,-0.1664,-0.1633,-0.1603,-0.1636,-0.1579,-0.1578,-0.1592,-0.1546,-0.1547,-0.1504,-0.1559,-0.1557,-0.1557,0,-0.2095,-0.2053,-0.1982,-0.1932,-0.1913,-0.1879,-0.183,-0.1793,-0.1749,-0.1732,-0.1699,-0.1682,-0.1634,-0.1646,-0.158,-0.1604,-0.1579,-0.156,-0.1558,-0.1551,-0.1565,-0.1538,-0.1489,-0.1483,-0.1546,-0.1547,-0.1548,0,-0.2078,-0.2003,-0.1951,-0.1929,-0.1869,-0.1846,-0.1819,-0.1777,-0.1748,-0.1706,-0.1687,-0.1639,-0.1613,-0.1577,-0.1548,-0.1559,-0.1484,-0.1494,-0.1469,-0.147,-0.1454,-0.1455,-0.14,-0.1439,-0.1439,-0.1439,-0.1439,0,-0.203,-0.1988,-0.1943,-0.1911,-0.1863,-0.1833,-0.1786,-0.1759,-0.1721,-0.1684,-0.1665,-0.163,-0.1594,-0.1555,-0.1532,-0.1481,-0.1469,-0.1454,-0.1449,-0.1456,-0.1458,-0.1439,-0.1441,-0.1437,-0.1437,-0.1438,-0.1438,0,-0.2003,-0.1971,-0.1913,-0.1862,-0.1848,-0.1815,-0.177,-0.1739,-0.1713,-0.1665,-0.1653,-0.1612,-0.1564,-0.1532,-0.1471,-0.1456,-0.14,-0.1395,-0.1415,-0.1412,-0.139,-0.1392,-0.132,-0.1309,-0.1355,-0.1355,-0.1355,0,-0.1974,-0.1941,-0.1886,-0.186,-0.1834,-0.1792,-0.1763,-0.1733,-0.1703,-0.1651,-0.1626,-0.1577,-0.1536,-0.1461,-0.1426,-0.1379,-0.1373,-0.1351,-0.1366,-0.1374,-0.1372,-0.1375,-0.1371,-0.1348,-0.1348,-0.1348,-0.1348,0,-0.1927,-0.1914,-0.1872,-0.1826,-0.1792,-0.1753,-0.1715,-0.1694,-0.1658,-0.1625,-0.1577,-0.1546,-0.1484,-0.1436,-0.1386,-0.1359,-0.1347,-0.1343,-0.1335,-0.1342,-0.1355,-0.1347,-0.1409,-0.1345,-0.1345,-0.1345,-0.1346,-0.1346,-0.1898,-0.1868,-0.1825,-0.178,-0.1748,-0.1713,-0.1681,-0.1651,-0.161,-0.1558,-0.1543,-0.1492,-0.145,-0.1382,-0.1354,-0.1314,-0.1316,-0.1304,-0.1301,-0.1298,-0.1298,-0.1362,-0.1305,-0.1305,-0.1305,-0.1305,-0.1305,0,-0.1851,-0.1822,-0.1781,-0.1728,-0.1693,-0.1685,-0.1643,-0.1614,-0.1569,-0.1531,-0.1492,-0.1436,-0.139,-0.1351,-0.1303,-0.1279,-0.1272,-0.1267,-0.1268,-0.1262,-0.1299,-0.1311,-0.1273,-0.1273,-0.1273,-0.1273,-0.1273,-0.1273,-0.1821,-0.177,-0.1751,-0.1684,-0.1656,-0.1607,-0.1583,-0.155,-0.152,-0.1459,-0.142,-0.1396,-0.1357,-0.1306,-0.1263,-0.1253,-0.1236,-0.1232,-0.1221,-0.1256,-0.126,-0.1263,-0.1274,-0.1229,-0.1229,-0.1187,-0.1187,-0.1187]},{"header":{"parameterUnit":"m.s-1","parameterCategory":1,"la1":30.2991,"la2":30.254,"lo1":-89.0895,"lo2":-89.0444,"dy":0.0017,"dx":0.0017,"nx":28,"ny":28,"refTime":"2025-05-19T03:00:00:Z","depth":0,"parameterNumber":3,"parameterNumberName":"V-component_of_WINDS"},"data":[0,0,0,0,0,0,0,0,0,0,0,0,0,0,0,0,0,0,0,0,0,0,0,0,0,0,0,0,0,0,0,0,0,0,0,0,0,0,0,0,0,0,0,0,0,0,0,0,0,0,0,0,0,0,0,0,0,0,4.353,4.353,0,4.348,4.348,4.3479,4.3419,4.3418,4.3417,4.3416,4.3362,4.3361,4.3361,0,0,0,0,0,0,0,0,0,0,0,0,0,4.3572,4.3572,4.353,4.353,4.3529,4.348,4.348,4.3479,4.3419,4.3418,4.3417,4.3416,4.3362,4.3361,4.3361,0,0,0,0,0,0,0,0,0,0,0,0,0,4.3541,4.3572,4.353,4.3494,4.349,4.3481,4.348,4.3479,4.342,4.3418,4.3417,4.3416,4.3362,4.3361,4.336,4.3382,0,0,4.3358,4.3357,0,0,0,0,0,0,0,0,4.3543,4.354,4.35,4.3496,4.3492,4.3455,4.3474,4.3446,4.342,4.3446,4.3416,4.3415,4.3394,4.339,4.3383,4.338,4.3377,4.3358,4.3357,4.3357,4.3356,0,0,0,0,0,0,0,4.3545,4.3542,4.351,4.3499,4.3494,4.3479,4.3473,4.3469,4.3428,4.3444,4.3439,4.3434,4.3391,4.3385,4.3382,4.3377,4.3358,4.3357,4.3356,4.3356,4.339,4.3391,0,0,0,0,0,0,4.3553,4.3544,4.3512,4.3509,4.3515,4.3479,4.3473,4.3468,4.3428,4.3421,4.3436,4.3432,4.3387,4.3383,4.338,4.3403,4.3357,4.3356,4.3355,4.3389,4.339,4.3392,0,0,0,0,0,0,4.3555,4.3551,4.3514,4.3525,4.3519,4.348,4.3475,4.3468,4.3461,4.3422,4.3414,4.3437,4.3386,4.3381,4.3383,4.3401,4.3355,4.3355,4.3387,4.3389,4.3391,4.3451,0,0,0,0,0,0,4.3556,4.3552,4.356,4.3526,4.3519,4.3519,4.3476,4.3468,4.346,4.3455,4.3421,4.3414,4.3384,4.3384,4.3382,4.3399,4.3354,4.3385,4.3388,4.339,4.3447,4.3455,4.3462,0,0,0,0,0,4.3558,4.3578,4.3561,4.3557,4.3529,4.352,4.3516,4.3482,4.3462,4.3469,4.3445,4.3415,4.34,4.3385,4.3382,4.3399,4.3384,4.3387,4.339,4.3444,4.3454,4.3462,0,0,0,0,0,0,4.3614,4.3573,4.3553,4.3563,4.3546,4.351,4.3518,4.3493,4.348,4.3475,4.3434,4.3426,4.3434,4.3416,4.3401,4.3418,4.3387,4.339,4.3429,4.3438,4.3445,4.3449,4.3353,0,0,0,0,0,4.3628,4.3625,4.3589,4.3601,4.3593,4.3558,4.3553,4.3529,4.3508,4.35,4.3475,4.3456,4.3447,4.3442,4.3431,4.3445,4.3437,4.3455,4.3462,4.3468,4.3471,4.3478,4.3486,4.3403,4.3403,4.3403,0,0,4.3655,4.3633,4.3633,4.3612,4.3595,4.3593,4.3552,4.355,4.3548,4.3499,4.35,4.3482,4.3457,4.3466,4.3468,4.3451,4.3492,4.3472,4.3478,4.3477,4.3482,4.349,4.3497,4.3405,4.3404,4.3404,0,0,4.3705,4.3688,4.3696,4.3681,4.3658,4.3634,4.3637,4.3605,4.3591,4.3592,4.3556,4.3552,4.3537,4.3522,4.3512,4.3559,4.3531,4.3556,4.3593,4.3601,4.3607,4.3613,4.363,4.3636,4.3559,4.3559,4.3559,0,4.3742,4.3737,4.3704,4.3705,4.3697,4.3655,4.3664,4.365,4.3624,4.3619,4.3602,4.3583,4.3564,4.3569,4.3581,4.3574,4.3575,4.3559,4.3609,4.3615,4.3619,4.3635,4.3641,4.3563,4.3562,4.3562,4.3562,0,4.3785,4.3782,4.3792,4.377,4.3763,4.3768,4.3735,4.3731,4.3709,4.3688,4.3689,4.3665,4.3649,4.3649,4.3626,4.3651,4.3641,4.3617,4.3585,4.3631,4.3645,4.3651,4.3567,4.3566,4.3565,4.3564,0,0,4.3866,4.3827,4.3831,4.3821,4.3793,4.379,4.3794,4.378,4.3778,4.3762,4.3764,4.3754,4.3732,4.3721,4.3696,4.3703,4.3742,4.3678,4.3677,4.3691,4.3769,4.3787,4.3795,4.3724,4.3725,4.3726,4.3771,0,4.391,4.3915,4.3885,4.3897,4.3895,4.3857,4.386,4.3843,4.3824,4.3819,4.3797,4.379,4.3762,4.3755,4.376,4.3737,4.3758,4.3733,4.3725,4.3725,4.3732,4.3802,4.3821,4.3865,4.3777,4.3777,4.3778,0,4.3961,4.395,4.3963,4.3936,4.3934,4.3937,4.3923,4.3919,4.39,4.3885,4.3875,4.3847,4.3848,4.3819,4.3821,4.3805,4.38,4.3788,4.3789,4.3787,4.3754,4.3801,4.3877,4.3884,4.3786,4.3786,4.3785,0,4.402,4.4008,4.4014,4.4007,4.3975,4.3979,4.3966,4.3945,4.3939,4.3927,4.3923,4.3911,4.3904,4.3895,4.3865,4.3846,4.387,4.3838,4.3858,4.3859,4.3864,4.3864,4.394,4.3862,4.3862,4.3862,4.3861,0,4.4072,4.4081,4.404,4.4044,4.4053,4.402,4.403,4.4013,4.3995,4.3995,4.3961,4.3961,4.3922,4.3918,4.3894,4.39,4.3897,4.3885,4.3879,4.3888,4.3889,4.3883,4.388,4.3863,4.3863,4.3863,4.3862,0,4.4138,4.4111,4.4115,4.4086,4.4079,4.4087,4.4062,4.4064,4.4044,4.4044,4.4042,4.401,4.4004,4.3974,4.396,4.3944,4.3958,4.3945,4.3965,4.396,4.3982,4.3981,4.4057,4.4066,4.3982,4.3983,4.3984,0,4.4172,4.4179,4.4151,4.4149,4.4138,4.4135,4.413,4.4098,4.4093,4.4073,4.4078,4.407,4.4061,4.4053,4.4028,4.4017,4.4004,4.4032,4.4002,4.4012,4.4005,4.4004,4.4005,4.4038,4.4039,4.404,4.404,0,4.4237,4.4224,4.4218,4.4208,4.4203,4.4193,4.4181,4.4181,4.4145,4.4142,4.4137,4.413,4.4118,4.411,4.4096,4.4081,4.4055,4.4051,4.4054,4.4064,4.4075,4.4069,4.3982,4.4048,4.4048,4.4047,4.4047,4.4046,4.4288,4.4292,4.4274,4.4269,4.4257,4.4247,4.4249,4.4229,4.4224,4.4212,4.4194,4.4191,4.4172,4.4151,4.414,4.4137,4.4121,4.4127,4.4129,4.4131,4.4136,4.4076,4.4134,4.4134,4.4133,4.4133,4.4133,0,4.435,4.4337,4.4333,4.4319,4.4315,4.4292,4.4279,4.4277,4.4275,4.4261,4.4254,4.4248,4.4241,4.4216,4.4206,4.4209,4.4197,4.4207,4.4206,4.4204,4.4149,4.4147,4.4218,4.4218,4.4218,4.4218,4.4218,4.4217,4.4382,4.4389,4.4374,4.4375,4.4362,4.436,4.4354,4.4345,4.4334,4.4329,4.4323,4.4308,4.429,4.4279,4.4272,4.4265,4.4262,4.4277,4.4266,4.4216,4.4207,4.42,4.4197,4.4277,4.4277,4.4321,4.4321,4.4322]}]]